カタログに戻る

QIANFAN-202

運用中通信PO
NORAD 69801·PAYLOAD·🇨🇳 China

打ち上げ Jul 4, 2026 から Taiyuan Satellite Launch Center

Loading…

次のパス (今後24時間)

TLE

最新Source: Space-Track

元期: Sep 14, 2026, 13:03 UTC

1 69801U 26153B   26257.54430217 -.01865367  00000-0 -12519+1 0  9995
2 69801  88.9973 352.0881 0009224 323.4785  36.5766 14.04540652 10225

AllMySatでQIANFAN-202をリアルタイム追跡

Download on the App Store